Location: Doschendorf
(50.0069°N, 11.0602°E)
Time: 18:05:02
(UTC+00:00)

Feng Yun 1-1 Rocket - Pass Details

Date: 17 November 2019
Orbit: 829 x 934 km, 99.2° (Epoch: 07 December)

Event Time Altitude Azimuth Distance (km) Brightness Sun altitude
Rises 16:01:14 0° 150° (SSE) 3,459 7.3 -5.4°
Reaches altitude 10° 16:03:39 10° 147° (SSE) 2,510 6.6 -5.7°
Maximum altitude 16:09:07 61° 69° (ENE) 966 4.3 -6.5°
Drops below altitude 10° 16:14:29 10° 350° (N) 2,469 6.5 -7.4°
Sets 16:16:51 0° 347° (NNW) 3,399 7.3 -7.7°
